Location: Eaton Estates
(41.3089°N, 82.0057°W)
Time: 15:36:07
(UTC+00:00)

NOAA 18 - Pass Details

Date: 09 April 2023
Orbit: 838 x 860 km, 98.9° (Epoch: 03 June)

Event Time Altitude Azimuth Distance (km) Brightness Sun altitude
Exits shadow 02:27:51 30° 53° (NE) 1,509 6.3 -25.9°
Drops below altitude 10° 02:31:59 10° 6° (N) 2,504 8.0 -26.5°
Sets 02:34:36 0° 357° (N) 3,443 9.0 -26.9°
